This demonstration page uses our WeatherBlox Daily Observations layout. Learn more.

Left ArrowRight Arrow

Hourly Observations for June 3, 2015

Temp ( °F °C ) Dew Point ( °F °C ) Humidity (%) Winds ( mph kmh ) Pressure ( in mb ) Visibility ( mi km ) Precip ( " mm )
12:54 am 00:54 Clear 67 19.4 61 16.1 81 81 SSE 9 15 29.86 1011 10 16.0934 N/A
1:54 am 01:54 Clear 67 19.4 62 16.7 84 84 SSE 14 22 29.84 1011 10 16.0934 N/A
2:54 am 02:54 Clear 66 18.9 62 16.7 87 87 SSE 12 19 29.83 1010 10 16.0934 N/A
3:41 am 03:41 Mostly Cloudy with Nearby Thunderstorms 64 18 61 16 88 88 NW 16 26 29.91 1013 2.5 4.02335 N/A
3:48 am 03:48 Cloudy with Heavy Thunderstorms 64 18 61 16 88 88 NNW 20 31 29.91 1013 1.75 2.816345 N/A
3:54 am 03:54 Cloudy with Heavy Thunderstorms 63 17.2 61 16.1 93 93 N 20 31 29.88 1012 1.25 2.011675 0.17 4.318
4:10 am 04:10 Cloudy with Nearby Thunderstorms 63 17 61 16 94 94 N 9 15 29.88 1012 6 9.65604 N/A
4:34 am 04:34 Cloudy with Light Thunderstorms 63 17 61 16 94 94 NE 10 17 29.85 1011 8 12.87472 N/A
4:49 am 04:49 Cloudy with Light Rain 63 17 61 16 94 94 N N/A 29.85 1011 8 12.87472 0.25 6.35
4:54 am 04:54 Cloudy with Light Rain 63 17.2 61 16.1 93 93 ESE 6 9 29.84 1011 9 14.48406 0.25 6.35
5:16 am 05:16 Mostly Cloudy with Nearby Thunderstorms 64 17.8 61 16.1 90 90 VRB 3 6 29.88 1012 9 14.48406 N/A
5:23 am 05:23 Mostly Cloudy with Thunderstorms 64 18 61 16 88 88 E 5 7 29.85 1011 4 6.43736 N/A
5:38 am 05:38 Cloudy with Nearby Thunderstorms 64 18 61 16 88 88 NW 3 6 29.88 1012 5 8.0467 N/A
5:49 am 05:49 Cloudy with Heavy Thunderstorms 63 17.2 61 16.1 93 93 SSE 8 13 29.86 1011 2 3.21868 0.16 4.064
6:10 am 06:10 Cloudy with Light Thunderstorms 63 17 63 17 100 100 SE 16 26 29.85 1011 6 9.65604 N/A
6:54 am 06:54 Cloudy with Nearby Thunderstorms 63 17.2 62 16.7 97 97 WSW 6 9 29.91 1013 10 16.0934 0.16 4.064
7:08 am 07:08 Cloudy with Light Rain 63 17 63 17 100 100 SSW 8 13 29.91 1013 8 12.87472 N/A
7:16 am 07:16 Cloudy with Light Thunderstorms 63 17.2 62 16.7 97 97 WSW 6 9 29.91 1013 8 12.87472 0.01 0.254
7:31 am 07:31 Cloudy with Light Thunderstorms 63 17 63 17 100 100 W 9 15 29.94 1014 6 9.65604 N/A
7:54 am 07:54 Cloudy with Rain 63 17.2 62 16.7 97 97 N N/A 29.93 1014 4 6.43736 0.05 1.27
8:54 am 08:54 Mostly Cloudy with Light Rain 63 17.2 62 16.7 97 97 SSW 12 19 29.84 1011 5 8.0467 0.07 1.778
9:09 am 09:09 Mostly Cloudy with Light Rain 63 17.2 62 16.7 97 97 S 16 26 29.83 1010 7 11.26538 N/A
9:54 am 09:54 Partly Cloudy with Light Rain 65 18.3 61 16.1 87 87 SSE 13 20 29.76 1008 10 16.0934 N/A
10:54 am 10:54 Mostly Sunny 66 18.9 62 16.7 87 87 SSE 13 20 29.81 1010 10 16.0934 N/A
11:20 am 11:20 Mostly Cloudy 70 21 63 17 78 78 VRB 5 7 29.85 1011 10 16.0934 N/A
11:36 am 11:36 Cloudy 70 21 63 17 78 78 NW 12 19 29.88 1012 10 16.0934 N/A
11:49 am 11:49 Cloudy 70 21 63 17 78 78 NW 8 13 29.91 1013 10 16.0934 N/A
11:54 am 11:54 Cloudy 71 21.7 63 17.2 76 76 NW 8 13 29.9 1013 10 16.0934 N/A
12:01 pm 12:01 Cloudy 72 22 64 18 78 78 NNW 10 17 29.88 1012 10 16.0934 N/A
12:21 pm 12:21 Partly Cloudy 73 23 64 18 74 74 W 8 13 29.85 1011 10 16.0934 N/A
12:50 pm 12:50 Mostly Cloudy 73 23 63 17 69 69 W 7 11 29.88 1012 10 16.0934 N/A
12:54 pm 12:54 Mostly Cloudy 74 23.3 63 17.2 69 69 WNW 9 15 29.9 1013 10 16.0934 N/A
1:54 pm 13:54 Cloudy 76 24.4 62 16.7 62 62 NW 6 9 29.9 1013 10 16.0934 N/A
2:29 pm 14:29 Partly Cloudy 77 25 64 17.8 64 64 NW 3 6 29.88 1012 10 16.0934 N/A
2:54 pm 14:54 Partly Cloudy 77 25 64 17.8 64 64 WSW 5 7 29.9 1013 10 16.0934 N/A
3:54 pm 15:54 Sunny 79 26.1 63 17.2 58 58 WNW 6 9 29.88 1012 10 16.0934 N/A
4:54 pm 16:54 Sunny 82 27.8 63 17.2 53 53 NE 5 7 29.88 1012 10 16.0934 N/A
5:54 pm 17:54 Mostly Sunny 78 25.6 63 17.2 60 60 S 5 7 29.88 1012 10 16.0934 N/A
6:54 pm 18:54 Partly Cloudy 82 27.8 63 17.2 53 53 N N/A 29.87 1012 10 16.0934 N/A
7:54 pm 19:54 Mostly Sunny 80 26.7 63 17.2 56 56 E 3 6 29.87 1012 10 16.0934 N/A
8:54 pm 20:54 Clear 75 23.9 63 17.2 66 66 ENE 8 13 29.88 1012 10 16.0934 N/A
9:54 pm 21:54 Clear 73 22.8 64 17.8 74 74 SSE 3 6 29.89 1012 10 16.0934 N/A
10:54 pm 22:54 Clear 71 21.7 63 17.2 76 76 SE 5 7 29.9 1013 10 16.0934 N/A
11:54 pm 23:54 Clear 71 21.7 66 18.9 84 84 SE 9 15 29.9 1012 10 16.0934 N/A

Powered by AerisWeather